User: anonymous   Login
Location: Unspecified
(0.0000°N, 0.0000°E)
Time: 01:54:54
(UTC+00:00)
Language:

STARLINK-4683 - Orbit

View from above orbital plane
View from above orbital plane
View from above satellite
View from above satellite

Ground track
Ground track

The orbit is defined by the following mean orbital elements,

1 53712U          26145.34979252 +.00000000 +00000-0 +12168-4 0 00002
2 53712  53.2131 264.5265 0001239  86.5921 273.5213 15.08836432    04
Epoch (UTC): 25 May 2026 08:23:42
Eccentricity: 0.0001239
inclination: 53.2131°
perigee height: 539 km
apogee height: 541 km
right ascension of ascending node: 264.5265°
argument of perigee: 86.5921°
revolutions per day: 15.08836432
mean anomaly at epoch: 273.5213°

The dashed part of the orbit path shows where the satellite is in the earth's shadow,  

DLR